QPF
0.00 0.00 0.00 0.01 0.01 0.01 0.01 0.01 0.00 0.00 0.01 0.02 0.03 0.03 0.00 0.00 0.00 0.00 0.00 0.00 0.00 0.00 0.00 0.00 0.00 0.00 0.00 0.00 0.00 0.00 0.00 0.00 0.00 0.00 0.00 0.00 0.00 0.00 0.00 0.00 0.00 0.00 0.01 0.00
0.00 0.00 0.00 0.00 0.01 0.02 0.01 0.03 0.03 0.00 0.04 0.05 0.01 0.01 0.00 0.00 0.00 0.00 0.00 0.00 0.00 0.00 0.00 0.00 0.00 0.00 0.00 0.00 0.00 0.00 0.00 0.00 0.00 0.00 0.00 0.00 0.00 0.00 0.00 0.00 0.00 0.00 0.00 0.00
0.00 0.00 0.00 0.00 0.00 0.01 0.03 0.05 0.04 0.01 0.02 0.11 0.05 0.04 0.02 0.00 0.00 0.00 0.00 0.00 0.00 0.00 0.00 0.00 0.00 0.00 0.00 0.00 0.00 0.00 0.00 0.00 0.00 0.00 0.00 0.00 0.00 0.00 0.00 0.00 0.00 0.00 0.00 0.00
0.00 0.00 0.00 0.00 0.00 0.00 0.00 0.02 0.02 0.01 0.00 0.02 0.03 0.03 0.01 0.00 0.00 0.00 0.00 0.00 0.00 0.00 0.00 0.00 0.00 0.00 0.00 0.00 0.00 0.00 0.00 0.00 0.00 0.00 0.00 0.00 0.00 0.00 0.00 0.00 0.00 0.00 0.00 0.00
0.00 0.00 0.00 0.00 0.00 0.00 0.00 0.00 0.01 0.04 0.03 0.01 0.01 0.04 0.05 0.01 0.00 0.00 0.00 0.00 0.00 0.00 0.01 0.01 0.03 0.03 0.01 0.00 0.00 0.00 0.00 0.00 0.00 0.00 0.00 0.00 0.00 0.00 0.00 0.00 0.00 0.00 0.00 0.00
0.00 0.00 0.00 0.00 0.00 0.00 0.00 0.00 0.00 0.01 0.00 0.01 0.02 0.01 0.01 0.03 0.01 0.00 0.00 0.00 0.00 0.00 0.00 0.01 0.01 0.00 0.00 0.00 0.00 0.00 0.00 0.00 0.00 0.00 0.00 0.00 0.00 0.00 0.00 0.00 0.00 0.00 0.00 0.00
0.00 0.00 0.00 0.00 0.00 0.00 0.00 0.00 0.00 0.00 0.01 0.01 0.01 0.01 0.01 0.02 0.03 0.01 0.00 0.00 0.00 0.00 0.00 0.00 0.00 0.00 0.00 0.00 0.00 0.00 0.00 0.00 0.00 0.00 0.00 0.00 0.00 0.00 0.00 0.00 0.00 0.00 0.00 0.00
0.00 0.00 0.00 0.00 0.00 0.00 0.00 0.00 0.00 0.00 0.00 0.00 0.00 0.00 0.00 0.00 0.00 0.00 0.00 0.00 0.00 0.00 0.00 0.00 0.00 0.00 0.00 0.00 0.00 0.00 0.00 0.00 0.00 0.00 0.00 0.00 0.00 0.00 0.00 0.00 0.00 0.00 0.00 0.00
0.00 0.00 0.00 0.00 0.00 0.00 0.00 0.00 0.00 0.00 0.00 0.00 0.00 0.00 0.00 0.00 0.00 0.00 0.00 0.00 0.00 0.00 0.00 0.00 0.00 0.00 0.00 0.00 0.00 0.00 0.00 0.00 0.00 0.00 0.00 0.00 0.00 0.00 0.00 0.00 0.00 0.00 0.00 0.00
0.00 0.00 0.00 0.00 0.01 0.02 0.00 0.00 0.00 0.00 0.00 0.00 0.00 0.00 0.00 0.00 0.00 0.00 0.00 0.00 0.00 0.00 0.00 0.00 0.00 0.00 0.00 0.00 0.00 0.00 0.00 0.00 0.01 0.01 0.01 0.00 0.00 0.00 0.00 0.00 0.00 0.00 0.00 0.00
0.00 0.00 0.00 0.00 0.01 0.02 0.00 0.00 0.00 0.00 0.00 0.00 0.00 0.00 0.00 0.00 0.00 0.00 0.00 0.00 0.00 0.00 0.00 0.00 0.00 0.00 0.00 0.00 0.00 0.00 0.00 0.00 0.00 0.00 0.01 0.00 0.00 0.00 0.00 0.00 0.00 0.00 0.00 0.00
0.00 0.00 0.01 0.01 0.00 0.01 0.01 0.00 0.00 0.01 0.01 0.00 0.00 0.00 0.00 0.00 0.00 0.00 0.00 0.00 0.00 0.00 0.00 0.01 0.01 0.01 0.00 0.00 0.00 0.00 0.00 0.00 0.00 0.00 0.00 0.00 0.00 0.00 0.00 0.00 0.00 0.00 0.00 0.00
0.01 0.01 0.02 0.03 0.02 0.02 0.02 0.00 0.00 0.01 0.02 0.01 0.00 0.00 0.00 0.00 0.00 0.00 0.00 0.00 0.00 0.00 0.00 0.00 0.00 0.01 0.00 0.00 0.00 0.00 0.00 0.00 0.00 0.00 0.00 0.00 0.00 0.00 0.00 0.00 0.00 0.00 0.00 0.00
0.00 0.00 0.00 0.00 0.03 0.05 0.06 0.01 0.00 0.00 0.00 0.00 0.00 0.00 0.00 0.00 0.00 0.00 0.00 0.00 0.00 0.00 0.00 0.00 0.00 0.00 0.00 0.00 0.00 0.00 0.00 0.00 0.00 0.00 0.00 0.00 0.00 0.00 0.00 0.00 0.00 0.00 0.00 0.00
0.00 0.01 0.00 0.01 0.02 0.04 0.03 0.02 0.01 0.00 0.00 0.00 0.00 0.00 0.00 0.00 0.00 0.00 0.00 0.00 0.00 0.00 0.00 0.01 0.02 0.00 0.00 0.00 0.00 0.00 0.00 0.00 0.00 0.00 0.00 0.00 0.00 0.00 0.00 0.00 0.00 0.00 0.00 0.00
0.01 0.01 0.00 0.01 0.02 0.06 0.00 0.00 0.00 0.00 0.00 0.05 0.02 0.00 0.00 0.00 0.00 0.00 0.00 0.00 0.00 0.00 0.00 0.00 0.00 0.00 0.00 0.01 0.00 0.00 0.00 0.00 0.00 0.00 0.00 0.00 0.00 0.00 0.00 0.00 0.00 0.00 0.00 0.00
0.00 0.00 0.01 0.01 0.04 0.05 0.01 0.00 0.00 0.00 0.00 0.03 0.03 0.00 0.00 0.00 0.00 0.00 0.00 0.00 0.00 0.00 0.00 0.01 0.00 0.00 0.01 0.02 0.01 0.00 0.00 0.00 0.00 0.00 0.00 0.00 0.00 0.00 0.00 0.00 0.00 0.00 0.00 0.00
0.01 0.00 0.01 0.02 0.04 0.04 0.02 0.01 0.04 0.05 0.10 0.13 0.07 0.00 0.00 0.00 0.00 0.00 0.00 0.00 0.00 0.01 0.01 0.00 0.00 0.01 0.03 0.03 0.00 0.00 0.00 0.00 0.00 0.00 0.00 0.00 0.00 0.00 0.00 0.00 0.00 0.00 0.00 0.00
0.07 0.04 0.03 0.02 0.00 0.00 0.00 0.00 0.02 0.06 0.04 0.01 0.00 0.00 0.00 0.00 0.00 0.00 0.00 0.02 0.05 0.02 0.04 0.01 0.01 0.03 0.04 0.01 0.00 0.00 0.00 0.00 0.00 0.00 0.00 0.00 0.00 0.00 0.00 0.00 0.00 0.00 0.00 0.00
0.02 0.00 0.00 0.00 0.00 0.00 0.00 0.00 0.00 0.00 0.01 0.01 0.00 0.00 0.00 0.00 0.00 0.00 0.00 0.00 0.00 0.01 0.00 0.01 0.03 0.01 0.00 0.00 0.00 0.00 0.00 0.00 0.00 0.00 0.00 0.00 0.00 0.00 0.00 0.00 0.00 0.00 0.00 0.00
0.00 0.00 0.00 0.00 0.00 0.00 0.00 0.00 0.00 0.00 0.01 0.00 0.00 0.00 0.02 0.01 0.02 0.02 0.00 0.00 0.00 0.01 0.00 0.01 0.02 0.00 0.00 0.00 0.00 0.00 0.00 0.00 0.00 0.00 0.00 0.00 0.00 0.01 0.00 0.00 0.00 0.00 0.00 0.00
0.00 0.00 0.00 0.00 0.00 0.00 0.00 0.00 0.00 0.00 0.00 0.02 0.16 0.13 0.06 0.05 0.06 0.07 0.03 0.03 0.02 0.01 0.02 0.12 0.03 0.00 0.00 0.00 0.00 0.00 0.00 0.00 0.00 0.00 0.00 0.00 0.00 0.01 0.00 0.00 0.00 0.00 0.00 0.00
0.02 0.09 0.06 0.01 0.00 0.01 0.00 0.00 0.00 0.00 0.00 0.00 0.00 0.00 0.01 0.06 0.17 0.15 0.06 0.07 0.02 0.01 0.02 0.02 0.00 0.00 0.00 0.00 0.00 0.00 0.00 0.00 0.00 0.00 0.00 0.00 0.00 0.00 0.00 0.00 0.00 0.00 0.00 0.00
0.04 0.05 0.04 0.00 0.00 0.00 0.00 0.00 0.00 0.00 0.00 0.00 0.00 0.00 0.00 0.03 0.13 0.08 0.07 0.03 0.07 0.11 0.03 0.00 0.00 0.00 0.00 0.00 0.00 0.00 0.00 0.00 0.00 0.00 0.00 0.00 0.00 0.00 0.00 0.00 0.00 0.00 0.00 0.00
0.06 0.03 0.01 0.00 0.00 0.00 0.00 0.00 0.00 0.00 0.00 0.00 0.00 0.00 0.01 0.01 0.09 0.08 0.03 0.06 0.06 0.02 0.03 0.00 0.00 0.00 0.00 0.00 0.00 0.00 0.00 0.00 0.00 0.00 0.00 0.00 0.00 0.00 0.00 0.00 0.00 0.00 0.00 0.00
0.03 0.01 0.00 0.00 0.00 0.00 0.00 0.00 0.00 0.00 0.00 0.00 0.00 0.01 0.03 0.04 0.07 0.06 0.08 0.07 0.05 0.05 0.02 0.01 0.00 0.00 0.01 0.00 0.00 0.00 0.00 0.00 0.00 0.00 0.00 0.00 0.00 0.00 0.00 0.00 0.00 0.00 0.00 0.00
0.01 0.00 0.00 0.00 0.00 0.00 0.00 0.00 0.00 0.00 0.00 0.00 0.00 0.02 0.03 0.07 0.15 0.20 0.14 0.14 0.07 0.04 0.03 0.04 0.05 0.06 0.08 0.02 0.00 0.00 0.00 0.00 0.00 0.00 0.00 0.00 0.00 0.00 0.00 0.00 0.00 0.00 0.00 0.00
MSLP
1023.13 1023.02 1022.26 1022.08 1021.31 1021.20 1020.54 1020.90 1021.33 1020.96 1020.84 1021.43 1021.24 1021.08 1020.34 1019.56 1019.27 1018.95 1018.78 1018.77 1018.69 1018.63 1018.57 1018.75 1018.47 1018.35 1018.14 1017.86 1017.94 1018.47 1018.69 1019.62 1020.17 1019.50 1018.96 1019.08 1019.56 1020.32 1021.49 1022.97 1023.55 1023.13 1022.09 1015.06
1023.68 1023.47 1022.82 1022.32 1021.53 1021.26 1021.83 1021.51 1021.38 1021.21 1021.02 1021.47 1021.43 1021.19 1020.64 1020.20 1019.96 1019.55 1019.40 1019.26 1019.03 1019.01 1019.16 1019.31 1018.85 1018.61 1018.49 1018.22 1018.28 1018.68 1018.96 1019.70 1020.46 1020.27 1019.81 1019.49 1019.88 1020.22 1020.77 1021.63 1022.09 1021.44 1020.81 1014.79
1023.88 1023.41 1023.29 1022.84 1022.05 1021.21 1021.67 1022.47 1022.25 1021.57 1021.45 1021.87 1021.89 1021.69 1021.19 1020.95 1020.56 1020.33 1020.32 1020.03 1019.62 1019.55 1019.69 1019.64 1019.54 1019.29 1019.03 1018.94 1018.93 1019.12 1019.07 1019.96 1020.52 1020.39 1020.01 1019.65 1020.04 1020.14 1020.32 1020.70 1020.83 1019.16 1018.15 1014.87
1023.99 1023.55 1023.72 1022.98 1022.47 1021.60 1022.22 1022.97 1022.96 1022.84 1022.41 1022.29 1022.23 1022.06 1021.79 1021.29 1021.21 1021.15 1020.95 1020.60 1020.53 1020.58 1020.59 1020.28 1020.07 1020.02 1019.93 1019.65 1019.71 1019.72 1019.91 1020.43 1020.52 1020.42 1020.41 1020.11 1019.69 1019.67 1019.57 1019.66 1018.92 1018.80 1014.80 1016.77
1023.93 1023.93 1023.56 1023.66 1022.86 1021.74 1022.52 1023.35 1023.34 1023.29 1023.22 1023.02 1022.74 1022.35 1022.17 1021.81 1021.62 1021.56 1021.35 1021.36 1021.24 1021.42 1021.42 1021.15 1021.11 1021.13 1021.04 1020.65 1020.55 1020.48 1020.71 1020.57 1020.87 1020.71 1020.35 1019.77 1019.19 1018.85 1018.05 1018.00 1017.83 1017.29 1016.00 1014.85
1024.05 1024.25 1023.61 1023.58 1023.43 1022.36 1023.18 1023.84 1023.76 1023.82 1023.59 1023.50 1023.35 1023.01 1022.72 1022.46 1022.30 1022.04 1021.87 1021.88 1021.86 1021.75 1021.66 1021.59 1021.76 1021.60 1021.49 1021.27 1021.15 1021.09 1021.25 1021.19 1021.30 1020.72 1020.34 1019.73 1018.35 1016.58 1016.27 1016.34 1016.33 1016.24 1015.68 1013.81
1024.06 1024.12 1024.11 1024.08 1023.80 1023.62 1023.91 1024.47 1024.34 1024.40 1024.42 1023.93 1023.79 1023.46 1023.26 1023.02 1023.09 1022.99 1022.61 1022.79 1022.50 1022.43 1021.96 1021.82 1021.55 1021.49 1021.20 1021.10 1020.88 1020.89 1020.95 1021.21 1021.31 1021.01 1020.55 1019.08 1016.29 1015.31 1015.26 1015.60 1015.19 1014.97 1014.56 1013.99
1024.26 1024.18 1024.31 1024.25 1024.27 1024.26 1024.51 1024.94 1025.05 1024.95 1025.06 1024.70 1024.25 1024.00 1023.89 1023.72 1023.69 1023.66 1023.25 1022.76 1022.55 1022.50 1022.37 1022.28 1021.87 1021.65 1021.42 1020.74 1020.27 1020.27 1020.59 1021.15 1021.35 1021.15 1020.29 1017.71 1016.37 1014.34 1014.15 1014.61 1014.18 1013.47 1013.78 1013.62
1024.45 1024.28 1024.40 1024.32 1024.58 1024.50 1024.91 1025.15 1025.31 1025.41 1025.59 1025.22 1024.99 1024.78 1024.61 1024.55 1024.36 1024.12 1023.58 1023.19 1022.84 1022.73 1022.70 1022.67 1022.73 1022.43 1021.89 1021.37 1020.56 1020.27 1020.49 1020.82 1021.28 1021.12 1020.11 1017.68 1015.03 1013.94 1013.63 1014.02 1013.59 1012.89 1013.22 1013.20
1024.32 1024.12 1024.29 1024.44 1024.55 1024.57 1025.13 1025.42 1025.37 1025.79 1026.20 1025.50 1025.32 1025.17 1025.03 1024.84 1024.99 1024.92 1024.64 1024.25 1023.65 1023.32 1023.15 1023.15 1022.98 1022.52 1021.86 1021.51 1020.93 1020.65 1020.84 1020.67 1020.17 1020.20 1019.26 1016.58 1014.62 1013.54 1013.85 1013.93 1013.64 1012.81 1012.82 1012.70
1024.21 1023.85 1024.16 1024.48 1024.45 1024.58 1024.97 1025.37 1025.37 1025.66 1026.06 1025.46 1025.19 1025.07 1025.00 1024.98 1025.09 1025.26 1025.06 1024.87 1024.49 1024.12 1024.06 1023.74 1023.13 1022.56 1021.75 1021.22 1020.52 1019.95 1019.81 1019.83 1019.71 1019.51 1018.51 1015.99 1013.69 1013.83 1013.83 1013.07 1012.54 1012.54 1012.25 1012.28
1023.95 1023.79 1023.93 1024.10 1024.13 1024.40 1024.99 1025.57 1025.54 1025.59 1025.92 1025.52 1024.90 1024.37 1024.03 1024.21 1024.26 1024.78 1024.95 1024.94 1024.72 1024.41 1024.37 1024.13 1023.79 1023.07 1022.43 1021.47 1020.69 1019.52 1019.29 1018.39 1018.34 1017.89 1015.91 1014.38 1013.80 1013.23 1012.78 1012.86 1012.90 1012.49 1012.43 1011.99
1023.80 1023.75 1023.81 1023.88 1023.84 1023.89 1024.72 1025.31 1025.55 1025.65 1025.77 1025.42 1025.09 1023.96 1023.30 1023.43 1023.49 1023.59 1024.69 1024.59 1024.19 1024.20 1024.06 1024.33 1024.31 1023.72 1023.09 1022.20 1020.91 1019.78 1018.54 1017.84 1017.47 1016.90 1014.79 1014.46 1013.76 1012.83 1012.41 1012.59 1012.51 1012.06 1011.95 1011.74
1023.53 1023.52 1023.65 1023.60 1023.43 1023.60 1024.26 1025.11 1025.09 1025.43 1025.70 1025.69 1024.64 1023.74 1023.39 1022.73 1022.95 1023.36 1023.34 1023.41 1023.70 1023.80 1024.15 1024.16 1023.92 1023.64 1022.46 1021.42 1020.34 1019.10 1018.44 1017.80 1017.02 1015.54 1014.70 1014.30 1013.19 1012.72 1012.31 1012.13 1011.89 1011.63 1011.44 1011.38
1023.27 1023.37 1023.44 1023.34 1023.32 1023.39 1023.98 1024.47 1024.64 1024.46 1024.97 1024.98 1024.71 1023.88 1022.18 1021.99 1022.44 1022.70 1022.97 1023.30 1023.58 1023.93 1023.97 1023.47 1022.92 1022.16 1021.92 1020.51 1019.72 1016.52 1017.42 1016.60 1016.07 1014.25 1014.04 1013.72 1012.25 1011.80 1011.98 1012.12 1011.64 1011.34 1011.40 1010.67
1022.98 1023.16 1023.17 1023.09 1023.08 1023.75 1024.21 1024.50 1023.73 1023.89 1024.28 1024.48 1024.40 1023.54 1022.40 1021.60 1021.87 1022.14 1022.30 1022.45 1022.97 1023.08 1022.57 1022.09 1021.44 1020.62 1020.48 1019.02 1016.43 1014.12 1014.89 1014.62 1014.47 1013.44 1012.83 1012.61 1011.89 1011.39 1011.19 1011.45 1010.95 1010.74 1010.80 1010.43
1022.60 1022.73 1022.88 1022.85 1022.85 1023.75 1023.77 1023.67 1023.50 1023.56 1024.00 1024.40 1024.31 1023.56 1022.31 1021.78 1021.63 1021.64 1021.63 1021.65 1021.71 1021.56 1021.39 1020.63 1020.11 1019.19 1019.11 1017.13 1014.00 1012.51 1012.53 1012.75 1012.21 1012.05 1011.84 1012.07 1011.10 1010.73 1010.26 1010.47 1010.21 1010.23 1009.94 1009.59
1022.47 1022.45 1022.41 1022.41 1022.55 1022.95 1023.23 1022.82 1022.82 1023.40 1024.00 1023.77 1023.95 1023.77 1022.99 1021.48 1021.53 1021.58 1020.96 1021.18 1021.25 1020.55 1019.63 1018.82 1018.05 1017.51 1017.19 1014.19 1009.69 1010.84 1010.90 1011.06 1010.65 1009.70 1010.13 1009.65 1009.54 1009.76 1009.64 1009.82 1009.92 1009.97 1009.71 1009.49
1022.23 1022.11 1021.99 1022.61 1022.86 1022.97 1022.73 1022.40 1022.33 1023.01 1023.86 1023.86 1024.10 1023.81 1022.67 1021.45 1021.22 1021.07 1020.53 1019.85 1019.72 1018.32 1017.60 1016.88 1016.48 1014.82 1012.38 1008.90 1009.33 1008.56 1008.51 1008.86 1007.99 1008.15 1008.77 1008.97 1009.41 1009.02 1009.06 1009.34 1009.46 1009.46 1009.24 1009.21
1022.15 1022.43 1022.75 1023.13 1023.15 1022.72 1022.77 1022.89 1023.16 1023.42 1023.21 1023.33 1023.21 1022.68 1022.16 1021.73 1021.29 1020.54 1020.13 1018.87 1018.04 1016.90 1014.85 1014.16 1013.35 1010.98 1008.77 1007.52 1006.89 1006.85 1007.08 1007.11 1007.21 1007.61 1007.75 1007.84 1008.13 1008.24 1008.35 1008.55 1008.56 1008.74 1008.82 1008.78
1022.75 1023.18 1023.43 1023.33 1022.91 1023.17 1024.00 1024.46 1024.60 1024.31 1023.53 1022.72 1022.04 1021.80 1021.28 1020.49 1020.45 1019.85 1019.28 1017.98 1016.34 1014.76 1012.69 1012.41 1010.25 1007.90 1006.61 1006.09 1005.61 1005.03 1005.35 1005.82 1006.04 1006.06 1006.25 1006.73 1006.88 1007.34 1007.56 1007.81 1007.97 1008.41 1008.41 1008.58
1022.80 1023.32 1023.46 1023.57 1024.22 1024.91 1025.66 1025.73 1025.69 1024.91 1023.27 1021.77 1021.22 1020.72 1020.12 1019.50 1019.04 1018.56 1017.87 1016.77 1015.37 1013.17 1011.64 1010.83 1008.39 1006.59 1006.44 1006.31 1005.74 1005.01 1004.35 1004.18 1005.01 1005.46 1005.85 1006.17 1006.51 1006.93 1007.22 1007.46 1007.61 1007.99 1008.17 1008.51
1022.94 1023.29 1023.90 1024.66 1025.85 1026.49 1026.68 1026.31 1025.65 1024.42 1022.52 1021.67 1021.04 1020.67 1019.52 1018.47 1017.75 1017.31 1016.52 1014.97 1013.20 1011.63 1010.82 1009.21 1007.60 1007.46 1007.46 1007.16 1006.67 1005.45 1004.33 1003.83 1004.65 1005.26 1005.63 1006.08 1006.68 1006.98 1007.28 1007.63 1007.77 1007.99 1008.24 1008.62
1023.01 1023.65 1024.88 1025.63 1026.41 1026.34 1025.59 1024.97 1023.99 1022.64 1021.99 1021.44 1020.97 1020.28 1019.36 1017.79 1017.09 1015.70 1014.45 1012.76 1011.61 1010.22 1009.55 1008.74 1008.59 1008.74 1008.40 1007.92 1007.25 1006.44 1005.82 1005.33 1005.27 1005.62 1006.12 1006.70 1007.35 1007.78 1007.78 1008.04 1008.19 1008.37 1008.79 1009.13
1022.84 1023.93 1025.05 1025.53 1025.00 1025.17 1024.85 1024.51 1023.69 1022.25 1021.58 1021.35 1020.87 1019.89 1018.85 1017.57 1016.11 1014.01 1013.03 1011.69 1010.50 1009.86 1009.62 1009.56 1009.43 1009.23 1008.95 1008.56 1008.01 1007.56 1007.20 1006.91 1006.81 1006.79 1007.17 1007.63 1008.01 1008.21 1008.64 1008.79 1008.74 1008.88 1009.26 1009.55
1022.90 1023.81 1024.55 1024.96 1025.52 1024.98 1024.74 1024.04 1023.16 1022.03 1021.56 1021.06 1020.62 1019.96 1018.55 1016.54 1014.41 1012.53 1011.98 1011.58 1011.58 1011.61 1011.33 1010.57 1010.06 1009.67 1009.42 1009.15 1008.97 1008.59 1008.33 1008.14 1007.99 1007.96 1008.09 1008.31 1008.58 1008.96 1009.46 1009.58 1009.65 1009.88 1010.09 1010.38
1023.36 1023.73 1023.73 1024.11 1024.41 1024.33 1023.94 1023.41 1022.66 1021.72 1021.80 1021.64 1020.76 1019.98 1017.88 1016.47 1014.32 1012.97 1012.98 1013.53 1013.55 1012.82 1011.86 1010.96 1010.49 1010.18 1009.89 1009.54 1009.51 1009.23 1009.18 1009.19 1009.11 1009.02 1009.14 1009.33 1009.58 1009.78 1010.06 1010.42 1011.05 1011.04 1011.35 1011.54
Thickness
5458 5455 5459 5456 5460 5456 5461 5458 5449 5451 5448 5444 5445 5448 5462 5478 5481 5487 5491 5493 5497 5502 5510 5509 5515 5517 5521 5517 5522 5521 5519 5494 5486 5509 5513 5513 5508 5501 5483 5458 5451 5466 5450 5524
5445 5443 5448 5450 5453 5450 5440 5443 5444 5441 5441 5436 5440 5442 5449 5457 5463 5473 5475 5480 5489 5488 5492 5493 5493 5502 5506 5508 5513 5507 5507 5489 5458 5484 5499 5499 5498 5490 5489 5470 5453 5455 5458 5521
5434 5437 5436 5437 5441 5444 5436 5430 5430 5435 5434 5424 5426 5429 5435 5439 5447 5451 5452 5462 5473 5480 5478 5482 5480 5489 5493 5491 5494 5497 5495 5475 5477 5462 5496 5494 5487 5485 5484 5478 5470 5492 5490 5508
5425 5427 5424 5429 5429 5434 5426 5419 5421 5418 5416 5424 5421 5421 5424 5434 5432 5433 5438 5448 5449 5447 5456 5463 5467 5467 5466 5475 5473 5472 5469 5462 5463 5469 5468 5471 5475 5479 5484 5479 5486 5466 5520 5483
5418 5416 5415 5413 5419 5426 5418 5406 5412 5410 5408 5411 5413 5414 5419 5419 5424 5427 5429 5429 5434 5432 5435 5447 5445 5444 5448 5456 5455 5457 5450 5452 5447 5451 5461 5462 5468 5471 5484 5485 5485 5482 5488 5492
5407 5403 5408 5406 5405 5414 5403 5398 5399 5399 5402 5401 5401 5404 5408 5410 5410 5417 5418 5420 5419 5422 5425 5428 5424 5428 5434 5441 5441 5440 5442 5438 5435 5446 5451 5453 5462 5488 5494 5489 5479 5475 5474 5509
5397 5395 5395 5393 5393 5395 5393 5385 5386 5383 5378 5395 5395 5399 5398 5401 5394 5398 5401 5396 5402 5410 5414 5418 5419 5417 5419 5424 5433 5434 5434 5433 5419 5425 5441 5433 5486 5493 5493 5486 5490 5481 5480 5489
5385 5384 5382 5383 5379 5378 5377 5371 5370 5368 5352 5371 5380 5383 5383 5385 5382 5383 5389 5396 5400 5395 5401 5401 5406 5407 5413 5419 5427 5432 5432 5426 5415 5409 5420 5458 5473 5493 5489 5485 5491 5493 5490 5488
5374 5374 5371 5372 5366 5366 5365 5361 5359 5360 5351 5352 5362 5362 5364 5363 5364 5370 5377 5379 5381 5388 5388 5394 5380 5396 5407 5411 5426 5415 5419 5424 5419 5403 5420 5435 5476 5492 5497 5488 5483 5493 5490 5487
5364 5365 5362 5360 5358 5357 5352 5348 5350 5344 5332 5347 5350 5346 5345 5350 5347 5347 5351 5360 5366 5374 5372 5381 5379 5382 5397 5395 5408 5408 5401 5409 5421 5417 5421 5443 5469 5486 5482 5476 5475 5488 5488 5484
5354 5358 5352 5347 5347 5346 5344 5339 5339 5337 5330 5336 5340 5343 5340 5339 5337 5333 5340 5343 5344 5350 5346 5362 5370 5370 5375 5383 5394 5403 5407 5398 5397 5415 5418 5437 5473 5470 5466 5474 5474 5480 5484 5479
5346 5347 5344 5340 5339 5335 5331 5327 5328 5326 5325 5327 5332 5335 5339 5338 5334 5327 5328 5332 5333 5336 5345 5342 5350 5367 5352 5365 5373 5393 5395 5407 5395 5405 5427 5449 5453 5463 5465 5462 5461 5468 5467 5479
5335 5336 5334 5332 5331 5327 5320 5316 5315 5313 5314 5317 5318 5326 5332 5327 5325 5327 5319 5317 5323 5325 5323 5319 5320 5327 5341 5345 5362 5380 5394 5397 5398 5401 5438 5440 5450 5459 5461 5454 5456 5467 5468 5471
5326 5325 5321 5320 5320 5315 5309 5304 5302 5297 5296 5297 5303 5311 5311 5316 5314 5311 5315 5316 5312 5311 5305 5295 5301 5314 5329 5325 5350 5365 5382 5383 5382 5397 5416 5416 5433 5439 5443 5448 5451 5455 5461 5465
5315 5311 5308 5307 5304 5300 5296 5290 5286 5286 5281 5279 5284 5292 5306 5306 5299 5299 5297 5296 5293 5287 5291 5300 5306 5315 5317 5329 5330 5374 5373 5376 5373 5394 5407 5399 5427 5431 5432 5433 5442 5454 5453 5469
5302 5297 5293 5291 5287 5279 5274 5270 5275 5271 5266 5264 5257 5274 5286 5295 5290 5284 5282 5281 5275 5277 5285 5293 5299 5316 5306 5315 5344 5393 5380 5378 5375 5384 5396 5396 5411 5425 5431 5429 5441 5448 5451 5461
5288 5282 5277 5273 5269 5262 5257 5255 5258 5256 5250 5245 5241 5249 5277 5279 5274 5267 5269 5264 5266 5269 5276 5285 5298 5310 5300 5313 5344 5391 5386 5369 5371 5374 5382 5380 5402 5414 5421 5420 5431 5437 5447 5457
5270 5266 5263 5260 5256 5252 5249 5249 5247 5244 5239 5242 5243 5239 5246 5263 5249 5245 5257 5250 5248 5263 5273 5283 5299 5305 5297 5321 5382 5372 5372 5369 5373 5386 5385 5395 5406 5404 5414 5417 5422 5431 5442 5454
5255 5253 5252 5248 5244 5243 5242 5244 5245 5240 5235 5224 5226 5225 5222 5248 5246 5247 5249 5262 5267 5276 5283 5293 5297 5313 5331 5374 5371 5379 5383 5379 5390 5390 5389 5394 5389 5407 5411 5411 5418 5428 5440 5451
5245 5242 5239 5237 5235 5237 5238 5234 5225 5235 5236 5228 5236 5231 5230 5245 5247 5251 5250 5255 5264 5283 5307 5310 5318 5342 5371 5384 5391 5393 5389 5388 5390 5389 5390 5394 5397 5406 5409 5411 5417 5428 5440 5453
5234 5231 5224 5230 5232 5229 5214 5201 5221 5202 5214 5231 5246 5242 5248 5256 5250 5256 5267 5262 5275 5290 5322 5323 5343 5377 5395 5396 5398 5405 5405 5400 5399 5402 5406 5406 5407 5410 5412 5412 5420 5429 5441 5448
5228 5224 5224 5223 5213 5202 5201 5176 5189 5208 5227 5244 5250 5253 5257 5262 5264 5266 5274 5285 5300 5308 5324 5344 5371 5389 5382 5378 5385 5392 5400 5415 5409 5404 5408 5407 5408 5409 5411 5416 5425 5433 5440 5445
5223 5222 5217 5212 5191 5189 5186 5167 5184 5183 5221 5230 5233 5244 5259 5271 5274 5280 5286 5301 5313 5328 5340 5365 5377 5371 5366 5367 5373 5387 5397 5413 5408 5405 5407 5406 5406 5408 5411 5418 5426 5432 5437 5441
5218 5216 5206 5186 5171 5192 5199 5205 5211 5226 5231 5238 5251 5254 5260 5274 5281 5287 5309 5322 5330 5354 5356 5368 5359 5353 5358 5363 5370 5381 5388 5397 5401 5402 5402 5402 5402 5404 5410 5417 5423 5429 5433 5435
5218 5203 5194 5189 5202 5185 5192 5199 5213 5234 5238 5239 5243 5250 5261 5276 5289 5311 5321 5334 5350 5356 5360 5351 5352 5351 5353 5359 5366 5371 5377 5382 5387 5391 5391 5392 5396 5403 5406 5412 5420 5425 5427 5431
5211 5198 5202 5196 5187 5192 5188 5201 5226 5233 5235 5243 5249 5252 5263 5287 5313 5335 5342 5342 5341 5337 5334 5341 5344 5350 5351 5352 5356 5361 5366 5372 5378 5384 5389 5392 5397 5400 5400 5405 5410 5415 5420 5422
5197 5202 5202 5193 5189 5197 5201 5206 5218 5226 5231 5231 5241 5250 5284 5287 5312 5332 5322 5315 5310 5315 5323 5335 5339 5341 5343 5345 5349 5355 5359 5361 5367 5375 5381 5385 5388 5394 5399 5401 5399 5406 5409 5412